Weather History for Meridian, MS

Change the Weather History Date:

Friday, November 23, 2012

  Actual Average Record
Temperature  
Mean Temperature 54 °F 52 °F  
Max Temperature 68 °F 65 °F 81 °F (1973)
Min Temperature 39 °F 40 °F 19 °F (1956)
Degree Days  
Heating Degree Days 11 13  
Month to date heating degree days 278 228  
Since 1 July heating degree days 399 352  
Cooling Degree Days 0 0  
Month to date cooling degree days 4 13  
Year to date cooling degree days 2177 2026  
Growing Degree Days 4 (Base 50)    
Moisture  
Dew Point 45 °F    
Average Humidity 78    
Maximum Humidity 100    
Minimum Humidity 55    
Precipitation  
Precipitation 0.00 in 0.18 in 2.53 in (1979)
Month to date precipitation 1.15 3.67  
Year to date precipitation 53.10 49.82  
Sea Level Pressure  
Sea Level Pressure 30.22 in    
Wind  
Wind Speed 5 mph (NW)    
Max Wind Speed 13 mph    
Max Gust Speed 17 mph    
Visibility 7 miles    
Events      
T = Trace of Precipitation, MM = Missing Value Source: NWS Daily Summary

Daily Weather History Graph

Daily Weather History Graph

Search for Another Location

Airport:

Trip Planner

Search our weather history database for the weather conditions in past years. The results will help you decide how hot, cold, wet, or windy it might be!

Date:

Astronomy

Nov. 23, 2012 Rise Set
Actual Time 6:31 AM CST 4:51 PM CST
Civil Twilight 6:05 AM CST 5:17 PM CST
Nautical Twilight 5:35 AM CST 5:47 PM CST
Astronomical Twilight 5:06 AM CST 6:16 PM CST
Moon 1:53 PM CST (11/23) 2:04 AM CST (11/23)
Length of Visible Light 11h 11m
Length of Day
10h 19m
Waxing Gibbous, 80% of the Moon is Illuminated
Nov 23
Waxing Gibbous
Nov 28
Full
Dec 6
Last Quarter
Dec 13
New
Dec 19
First Quarter

Hourly Weather History & Observations

Time (CST) Temp. Windchill Dew Point Humidity Pressure Visibility Wind Dir Wind Speed Gust Speed Precip Events Conditions
12:58 AM 43.0 °F - 41.0 °F 93% 30.19 in 4.0 mi Calm Calm - N/A   Clear
1:58 AM 43.0 °F - 42.1 °F 97% 30.20 in 4.0 mi Calm Calm - N/A   Clear
2:27 AM 42.8 °F 40.1 °F 41.0 °F 93% 30.21 in 2.5 mi SSW 4.6 mph - N/A   Clear
2:37 AM 41.0 °F 39.0 °F 39.2 °F 93% 30.21 in 4.0 mi SW 3.5 mph - N/A   Clear
2:58 AM 39.0 °F - 37.9 °F 96% 30.21 in 4.0 mi Calm Calm - N/A   Clear
3:58 AM 39.9 °F - 39.0 °F 97% 30.22 in 3.0 mi Calm Calm - N/A   Clear
4:24 AM 39.2 °F - 39.2 °F 100% 30.21 in 4.0 mi Calm Calm - N/A   Clear
4:33 AM 41.0 °F - 39.2 °F 93% 30.22 in 4.0 mi Calm Calm - N/A   Clear
4:58 AM 39.9 °F - 39.0 °F 97% 30.22 in 4.0 mi Calm Calm - N/A   Clear
5:32 AM 39.2 °F - 39.2 °F 100% 30.22 in 3.0 mi Calm Calm - N/A   Clear
5:42 AM 39.2 °F - 37.4 °F 93% 30.23 in 3.0 mi Calm Calm - N/A   Clear
5:58 AM 39.0 °F - 37.9 °F 96% 30.23 in 3.0 mi Calm Calm - N/A   Clear
6:58 AM 39.0 °F - 37.9 °F 96% 30.24 in 3.0 mi Calm Calm - N/A   Clear
7:58 AM 46.0 °F 43.9 °F 45.0 °F 96% 30.25 in 5.0 mi South 4.6 mph - N/A   Scattered Clouds
8:58 AM 54.0 °F - 50.0 °F 86% 30.24 in 7.0 mi Calm Calm - N/A   Clear
9:58 AM 64.0 °F - 51.1 °F 63% 30.23 in 10.0 mi West 5.8 mph - N/A   Clear
10:58 AM 68.0 °F - 52.0 °F 56% 30.22 in 10.0 mi NW 8.1 mph - N/A   Scattered Clouds
11:58 AM 66.0 °F - 54.0 °F 65% 30.20 in 10.0 mi NW 10.4 mph - N/A   Overcast
12:58 PM 64.9 °F - 54.0 °F 68% 30.18 in 10.0 mi WNW 10.4 mph - N/A   Overcast
1:58 PM 64.0 °F - 54.0 °F 70% 30.17 in 10.0 mi West 9.2 mph - N/A   Overcast
2:58 PM 64.0 °F - 54.0 °F 70% 30.17 in 10.0 mi WNW 8.1 mph - N/A   Overcast
3:17 PM 62.6 °F - 53.6 °F 72% 30.18 in 10.0 mi WNW 8.1 mph - N/A   Overcast
3:58 PM 62.1 °F - 54.0 °F 75% 30.18 in 10.0 mi WNW 9.2 mph - N/A   Overcast
4:58 PM 61.0 °F - 53.1 °F 75% 30.19 in 10.0 mi NW 6.9 mph - N/A   Overcast
5:58 PM 60.1 °F - 53.1 °F 78% 30.21 in 10.0 mi NNW 5.8 mph - 0.01 in   Overcast
6:23 PM 59.0 °F - 53.6 °F 82% 30.21 in 10.0 mi NNW 6.9 mph - N/A   Overcast
6:58 PM 57.0 °F - 52.0 °F 83% 30.22 in 10.0 mi NNW 11.5 mph - N/A   Scattered Clouds
7:58 PM 52.0 °F - 48.9 °F 89% 30.22 in 10.0 mi NW 3.5 mph - N/A   Clear
8:58 PM 52.0 °F - 45.0 °F 77% 30.24 in 10.0 mi NNW 9.2 mph - N/A   Clear
9:58 PM 48.0 °F - 39.9 °F 74% 30.25 in 10.0 mi North 6.9 mph - N/A   Clear
10:58 PM 46.0 °F 43.9 °F 39.0 °F 76% 30.25 in 10.0 mi North 4.6 mph - N/A   Clear
11:58 PM 45.0 °F 41.8 °F 37.9 °F 76% 30.25 in 10.0 mi North 5.8 mph - N/A   Clear